This is the latest recevied weather packets stored in our database for station/object OZ1IEP-5. If no packets are shown the sender has not sent any weather packets the latest 10 day(s).
| Time | Temp. | Humidity | Pressure | Rain* | Wind** | Luminosity | Snow |
|---|---|---|---|---|---|---|---|
| 1787595606 | 17.22° C | 78% | 1019.3 hPa | 0 mm | - | 5 W/m² | - |
| 1787595005 | 17.22° C | 78% | 1019.3 hPa | 0 mm | - | 9 W/m² | - |
| 1787594408 | 17.22° C | 77% | 1019.2 hPa | 0 mm | - | 12 W/m² | - |
| 1787593806 | 17.78° C | 76% | 1019.1 hPa | 0 mm | - | 18 W/m² | - |
| 1787593205 | 17.78° C | 74% | 1019.1 hPa | 0 mm | - | 26 W/m² | - |
| 1787592608 | 17.78° C | 72% | 1019.3 hPa | 0 mm | - | 33 W/m² | - |
| 1787592006 | 18.33° C | 71% | 1019.3 hPa | 0 mm | - | 53 W/m² | - |
| 1787591406 | 18.33° C | 71% | 1019.3 hPa | 0 mm | - | 33 W/m² | - |
| 1787590808 | 18.33° C | 69% | 1019.3 hPa | 0 mm | - | 47 W/m² | - |
| 1787590206 | 18.89° C | 66% | 1019.4 hPa | 0 mm | - | 35 W/m² | - |
| 1787589606 | 18.89° C | 66% | 1019.4 hPa | 0 mm | - | 37 W/m² | - |
| 1787589009 | 18.89° C | 67% | 1019.4 hPa | 0 mm | - | 42 W/m² | - |
| 1787588406 | 18.89° C | 66% | 1019.4 hPa | 0 mm | - | 40 W/m² | - |
| 1787587806 | 18.89° C | 62% | 1019.4 hPa | 0 mm | - | 56 W/m² | - |
| 1787587209 | 19.44° C | 63% | 1019.5 hPa | 0 mm | - | 46 W/m² | - |
| 1787586605 | 19.44° C | 65% | 1019.6 hPa | 0 mm | - | 47 W/m² | - |
| 1787586005 | 19.44° C | 64% | 1019.7 hPa | 0 mm | - | 76 W/m² | - |
| 1787585408 | 19.44° C | 60% | 1019.8 hPa | 0 mm | - | 81 W/m² | - |
| 1787584806 | 19.44° C | 60% | 1019.8 hPa | 0 mm | - | 56 W/m² | - |
| 1787584206 | 19.44° C | 63% | 1019.8 hPa | 0 mm | - | 54 W/m² | - |
| 1787583608 | 19.44° C | 64% | 1019.8 hPa | 0 mm | - | 90 W/m² | - |
| 1787583006 | 20° C | 62% | 1019.8 hPa | 0 mm | - | 346 W/m² | - |
| 1787582405 | 20° C | 60% | 1019.9 hPa | 0 mm | - | 373 W/m² | - |
| 1787581809 | 20° C | 62% | 1019.9 hPa | 0 mm | - | 512 W/m² | - |
| 1787581207 | 20° C | 61% | 1019.9 hPa | 0 mm | - | 533 W/m² | - |
* Rain latest hour (hover to see other rain measurements)
** Current wind speed in m/s (hover to see current wind gust speed)